SCP
0 0 0 0 0 0 0 0 0 0 0 0 0 0 0 0 0 0 0 0 0 0 0 0 0 0 0 0 0 0 0 0 0 0 0 0 0 0 0 0 0 0 0
0 0 0 0 0 0 0 0 0 0 0 0 0 0 0 0 0 0 0 0 0 0 0 0 0 0 0 0 0 0 0 0 0 0 0 0 0 0 0 0 0 0 0
0 0 0 0 0 0 0 0 0 0 0 0 0 0 0 0 0 0 0 0 0 0 0 0 0 0 0 0 0 0 0 0 0 0 0 0 0 0 0 0 0 0 0
0 0 0 0 0 0 0 0 0 0 0 0 0 0 0 0 0 0 0 0 0 0 0 0 0 0 0 0 0 0 0 0 0 0 0 0 0 0 0 0 0 0 0
0 0 0 0 0 0 0 0 0 0 0 0 0 0 0 0 0 0 0 0 0 0 0 0 0 0 0 0 0 0 0 0 0 0 0 0 0 0 0 0 0 0 0
0 0 0 0 0 0 0 0 0 0 0 0 0 0 0 0 0 0 0 0 0 0 0 0 0 0 0 0 0 0 0 0 0 0 0 0 0 0 0 0 0 0 0
0 0 0 0 0 0 0 0 0 0 0 0 0 0 0 0 0 0 0 0 0 0 0 0 0 0 0 0 0 0 0 0 0 0 0 0 0 0 0 0 0 0 0
0 0 0 0 0 0 0 0 0 0 0 0 0 0 0 0 0 0 0 0 0 0 0 0 0 0 0 0 0 0 0 0 0 0 0 0 0 0 0 0 0 0 0
0 0 0 0 0 0 0 0 0 0 0 0 0 0 0 0 0 0 0 0 0 0 0 0 0 0 0 0 0 0 0 0 0 0 0 0 0 0 0 0 0 0 0
0 0 0 0 0 0 0 0 0 0 0 0 0 0 0 0 0 0 0 0 0 0 0 0 0 0 0 0 0 0 0 0 0 0 0 0 0 0 0 0 0 0 0
0 0 0 0 0 0 0 0 0 0 0 0 0 0 0 0 0 0 0 0 0 0 0 0 0 0 0 0 0 0 0 0 0 0 0 0 0 0 0 0 0 0 0
0 0 0 0 0 0 0 0 0 0 0 0 0 0 0 0 0 0 0 0 0 0 0 0 0 0 0 0 0 0 0 0 0 0 0 0 0 0 0 0 0 0 0
0 0 0 0 0 0 0 0 0 0 0 0 0 0 0 0 0 0 0 0 0 0 0 0 0 0 0 0 0 0 0 0 0 0 0 0 0 0 0 0 0 0 0
0 0 0 0 0 0 0 0 0 0 0 0 0 0 0 0 0 0 0 0 0 0 0 0 0 0 0 0 0 0 0 0 0 0 0 0 0 0 0 0 0 0 0
0 0 0 0 0 0 0 0 0 0 0 0 0 0 0 0 0 0 0 0 0 0 0 0 0 0 0 0 0 0 0 0 0 0 0 0 0 0 0 0 0 0 0
0 0 0 0 0 0 0 0 0 0 0 0 0 0 0 0 0 0 0 0 0 0 0 0 0 0 0 0 0 0 0 0 0 0 0 0 0 0 0 0 0 0 0
0 0 0 0 0 0 0 0 0 0 0 0 0 0 0 0 0 0 0 0 0 0 0 0 0 0 0 0 0 0 0 0 0 0 0 0 0 0 0 0 0 0 0
0 0 0 0 0 0 0 0 0 0 0 0 0 0 0 0 0 0 0 0 0 0 0 0 0 0 0 0 0 0 0 0 0 0 0 0 0 0 0 0 0 0 0
0 0 0 0 0 0 0 0 0 0 0 0 0 0 0 0 0 0 0 0 0 0 0 0 0 0 0 0 0 0 0 0 0 0 0 0 0 0 0 0 0 0 0
0 0 0 0 0 0 0 0 0 0 0 0 0 0 0 0 0 0 0 0 0 0 0 0 0 0 0 0 0 0 0 0 0 0 0 0 0 0 0 0 0 0 0
0 0 0 0 0 0 0 0 0 0 0 0 0 0 0 0 0 0 0 0 0 0 0 0 0 0 0 0 0 0 0 0 0 0 0 0 0 0 0 0 0 0 0
0 0 0 0 0 0 0 0 0 0 0 0 0 0 0 0 0 0 0 0 0 0 0 0 0 0 0 0 0 0 0 0 0 0 0 0 0 0 0 0 0 0 0
0 0 0 0 0 0 0 0 0 0 0 0 0 0 0 0 0 0 0 0 0 0 0 0 0 0 0 0 0 0 0 0 0 0 0 0 0 0 0 0 0 0 0
0 0 0 0 0 0 0 0 0 0 0 0 0 0 0 0 0 0 0 0 0 0 0 0 0 0 0 0 0 0 0 0 0 0 0 0 0 0 0 0 0 0 0
0 0 0 0 0 0 0 0 0 0 0 0 0 0 0 0 0 0 0 0 0 0 0 0 0 0 0 0 0 0 0 0 0 0 0 0 0 0 0 0 0 0 0
0 0 0 0 0 0 0 0 0 0 0 0 0 0 0 0 0 0 0 0 0 0 0 0 0 0 0 0 0 0 0 0 0 0 0 0 0 0 0 0 0 0 0
Wind_Speed_500mb
48 48 48 54 57 59 51 49 50 46 47 49 49 48 45 52 54 54 51 50 49 44 40 36 35 36 36 32 29 31 33 33 39 44 45 46 49 54 52 44 37 39 38
47 56 53 58 59 59 58 53 52 48 48 49 47 45 43 45 50 49 49 50 49 48 47 44 41 40 38 36 33 31 29 34 36 41 47 46 55 49 29 42 42 38 37
46 52 54 55 58 58 60 56 55 53 51 49 46 45 44 42 40 47 48 49 47 47 46 44 42 44 46 44 40 38 41 39 41 45 34 19 20 51 60 49 49 38 41
48 51 55 60 58 59 61 61 61 62 62 60 58 56 54 48 40 38 38 44 46 48 47 48 48 48 50 50 48 44 43 41 44 46 43 44 45 47 34 63 53 47 46
49 50 54 61 62 60 59 62 63 64 65 66 66 63 60 49 37 34 35 39 43 45 46 48 47 49 49 50 50 50 45 39 42 40 45 48 46 38 49 51 60 68 57
40 49 57 58 57 55 52 54 59 65 69 69 65 60 58 49 42 37 39 36 34 35 35 38 40 42 45 47 45 43 45 37 39 43 45 47 37 42 49 51 62 66 70
49 49 52 50 47 46 47 48 49 50 58 65 69 63 51 43 39 38 30 31 31 30 27 29 30 31 31 34 35 35 36 36 39 35 44 34 43 43 48 52 59 63 70
44 42 42 42 42 41 37 35 33 34 39 45 53 59 52 43 37 37 36 29 30 31 30 29 29 27 27 27 29 31 32 35 36 39 40 46 44 43 43 45 51 66 65
41 39 37 35 32 29 27 26 26 26 28 33 35 39 40 38 42 36 34 34 30 33 32 31 40 25 27 26 30 27 25 32 36 35 40 41 40 41 41 42 41 45 59
39 36 34 31 30 29 27 25 23 23 24 26 28 32 35 39 45 31 27 29 28 30 31 32 30 29 29 28 28 29 29 30 30 31 32 34 35 37 39 41 44 45 49
40 36 33 31 31 30 28 26 24 23 24 27 29 32 34 38 48 34 27 25 25 25 25 24 22 24 24 23 22 21 22 22 23 26 28 30 34 36 40 42 44 49 52
41 38 36 34 32 29 26 26 27 27 25 24 25 30 36 41 42 30 28 26 24 24 23 21 18 17 15 14 14 16 18 20 22 26 30 34 37 40 44 47 50 54 56
44 41 40 37 33 32 32 30 29 28 28 27 26 27 29 30 33 31 29 28 27 25 21 18 15 13 11 12 14 15 18 22 27 31 35 39 43 45 49 52 55 57 61
49 44 42 39 37 36 35 35 34 32 32 29 28 28 30 31 32 32 30 27 25 21 18 14 11 10 11 12 15 19 23 28 32 35 39 42 46 50 53 57 59 62 66
48 48 48 46 44 43 40 38 37 37 34 33 34 36 35 35 34 32 29 26 22 17 14 11 11 11 13 16 21 25 30 33 35 39 44 48 52 55 57 61 61 61 64
51 52 52 52 51 49 47 45 42 40 38 39 38 38 37 38 34 31 28 23 20 17 12 9 10 15 19 25 30 34 37 41 45 46 48 51 54 55 56 56 56 57 58
50 55 57 56 54 52 50 48 45 44 43 42 41 40 39 36 33 30 27 22 16 10 9 11 15 21 26 29 33 35 39 42 46 50 52 51 50 51 53 54 53 53 53
52 55 57 58 57 54 51 48 48 48 48 46 43 42 39 35 32 28 22 16 13 10 11 15 20 25 29 32 36 40 44 45 47 49 50 50 50 50 53 56 57 56 56
54 56 56 60 60 58 55 54 53 52 50 47 46 43 39 34 29 23 17 13 11 11 14 19 25 29 32 35 39 44 46 48 48 48 48 51 52 54 56 55 61 64 64
47 45 50 57 61 60 58 58 58 55 53 50 47 43 38 31 24 19 14 11 12 16 23 29 29 30 34 36 37 38 40 41 44 47 51 53 56 57 56 55 58 65 65
36 40 43 52 62 60 59 58 56 55 52 50 45 39 33 26 21 16 13 12 18 27 28 27 27 27 27 27 28 31 36 42 47 50 52 53 54 55 55 48 48 55 54
31 35 42 50 58 59 57 57 57 56 52 47 41 34 27 22 18 12 17 25 29 25 24 23 22 20 22 25 28 32 36 40 46 49 50 53 51 53 50 46 44 50 50
24 29 37 48 55 55 54 57 59 57 52 45 37 32 26 18 18 21 28 26 26 25 25 23 20 19 22 25 29 33 37 40 44 48 53 55 56 54 53 43 41 50 51
26 31 40 50 55 57 58 55 56 53 47 40 34 29 22 22 25 28 28 26 25 26 27 26 26 25 24 27 30 35 39 43 47 52 56 58 55 51 47 45 43 47 49
33 39 45 52 55 57 59 58 55 51 44 38 31 26 29 34 35 32 27 26 27 27 28 30 30 33 35 36 40 45 46 49 50 55 57 59 58 58 54 49 45 49 55
39 44 47 50 53 59 64 60 53 46 41 37 33 39 41 38 34 29 27 26 26 27 29 31 33 37 42 44 46 46 50 50 51 54 57 57 57 56 56 55 55 56 58
Wind_Direction_500mb
224 223 221 220 222 222 228 230 232 233 229 232 236 239 243 229 231 233 235 239 242 240 243 247 249 251 255 260 263 263 264 268 266 278 282 287 294 292 295 309 304 307 300
222 220 216 217 220 219 223 227 234 238 235 238 244 249 255 258 237 237 237 239 238 243 243 248 254 259 263 266 270 276 278 275 278 281 290 292 302 308 302 300 304 309 303
218 215 212 213 215 216 218 225 232 239 242 246 246 248 250 251 240 238 237 239 242 243 247 247 249 256 262 264 267 267 272 278 280 290 293 291 284 306 302 308 305 310 309
218 214 213 210 209 214 219 225 227 231 236 242 243 244 251 255 263 263 253 246 247 248 248 249 253 251 256 261 262 261 272 266 282 277 285 294 290 295 295 308 306 304 299
223 216 209 206 207 212 219 224 228 233 236 235 238 241 246 254 262 259 250 249 246 247 247 250 253 252 251 251 254 263 262 270 277 282 284 288 286 298 283 290 300 302 299
209 206 200 201 207 215 220 227 231 233 235 240 240 237 239 240 247 247 244 245 242 245 247 251 253 253 252 252 253 256 265 268 273 273 288 277 287 296 297 297 300 299 301
194 193 199 207 216 230 236 240 239 234 232 232 238 239 233 226 230 244 249 243 240 241 246 249 255 257 255 249 250 254 257 265 267 282 285 289 289 289 290 293 295 299 301
194 200 209 217 222 227 228 226 227 227 224 225 228 235 233 224 214 232 236 232 234 235 236 244 246 242 245 246 249 255 260 259 276 279 283 283 282 281 282 287 293 299 299
194 199 203 206 207 205 209 208 205 209 209 210 213 223 225 218 208 220 229 228 236 236 237 241 236 240 248 252 248 263 253 273 277 272 273 279 285 285 286 286 286 290 298
190 192 198 198 196 194 194 196 196 202 202 202 206 215 216 215 213 209 218 225 228 229 230 236 252 250 248 247 256 258 264 269 275 282 288 292 296 300 301 300 298 294 287
192 197 195 192 195 194 195 195 192 196 198 199 200 204 204 207 207 204 206 209 215 220 225 226 227 233 236 238 244 255 266 275 283 288 293 297 300 303 303 303 302 303 302
194 197 197 197 197 198 197 195 194 190 192 189 191 193 197 202 213 195 193 193 197 205 204 201 204 211 222 236 251 265 275 283 292 299 300 302 304 306 306 307 306 305 304
193 196 199 200 202 201 201 199 196 190 190 187 184 186 180 180 179 181 185 184 184 183 185 187 194 206 223 249 267 281 294 300 302 306 308 309 310 310 307 307 307 306 305
197 202 203 204 204 205 205 201 196 191 190 181 182 182 176 174 175 171 175 176 175 179 183 188 206 232 254 273 289 298 305 310 309 309 309 309 309 310 309 308 309 310 310
203 207 208 206 204 204 202 199 197 191 185 183 183 181 176 175 176 174 174 177 178 184 191 205 227 256 280 293 302 309 310 310 310 311 312 311 311 311 312 312 312 311 310
212 213 212 210 208 206 204 200 198 192 188 189 187 184 181 179 176 176 178 180 185 193 204 232 272 290 302 312 314 314 315 315 313 313 313 315 316 315 312 309 309 311 312
220 219 217 214 211 210 208 202 198 195 192 193 189 187 184 181 178 179 181 185 194 211 243 276 300 310 314 314 312 312 311 312 315 317 316 316 316 315 314 312 311 311 311
238 231 225 219 213 210 206 204 200 197 195 193 192 188 184 185 185 185 189 198 215 242 274 297 306 311 310 310 309 310 312 315 317 318 318 319 321 321 319 318 318 319 319
246 241 233 224 216 211 208 203 200 199 197 196 194 191 189 190 191 194 199 215 242 278 299 310 307 304 308 311 313 317 319 319 319 320 319 321 323 324 325 321 321 319 320
248 248 239 225 216 212 209 206 204 201 199 195 193 191 190 191 196 203 212 239 272 294 304 298 302 305 309 313 315 319 320 320 324 327 327 327 324 321 320 320 319 316 317
241 237 228 222 216 211 208 206 204 201 197 194 193 192 193 199 205 214 243 270 298 295 286 292 300 305 308 311 315 320 325 327 328 327 324 323 319 318 321 319 310 308 311
230 226 221 215 209 209 208 205 202 198 195 193 193 196 201 208 211 238 278 280 272 280 288 292 294 299 308 315 319 323 323 322 320 320 319 321 324 321 320 316 307 311 308
227 225 216 207 204 205 207 204 199 195 192 194 198 204 206 214 254 274 264 264 272 279 281 282 287 297 303 306 310 311 313 313 316 319 320 321 323 324 322 317 310 313 312
220 216 207 205 204 203 201 200 197 193 195 202 205 205 225 252 251 245 252 262 274 280 284 290 297 303 308 306 304 306 313 320 321 320 321 321 321 318 315 315 313 310 308
222 215 212 209 205 200 194 190 195 199 202 201 208 234 241 236 237 239 250 264 270 277 286 293 301 309 311 311 314 319 322 322 321 317 320 320 320 317 316 314 305 303 303
224 218 214 211 207 200 194 194 199 204 205 230 234 232 232 234 236 244 254 261 273 286 291 296 305 309 308 313 318 316 318 322 320 319 317 316 314 313 312 309 304 299 299
Wind_Speed_850mb
48 48 48 54 57 59 51 49 50 46 47 49 49 48 45 52 54 54 51 50 49 44 40 36 35 36 36 32 29 31 33 33 39 44 45 46 49 54 52 44 37 39 38
47 56 53 58 59 59 58 53 52 48 48 49 47 45 43 45 50 49 49 50 49 48 47 44 41 40 38 36 33 31 29 34 36 41 47 46 55 49 29 42 42 38 37
46 52 54 55 58 58 60 56 55 53 51 49 46 45 44 42 40 47 48 49 47 47 46 44 42 44 46 44 40 38 41 39 41 45 34 19 20 51 60 49 49 38 41
48 51 55 60 58 59 61 61 61 62 62 60 58 56 54 48 40 38 38 44 46 48 47 48 48 48 50 50 48 44 43 41 44 46 43 44 45 47 34 63 53 47 46
49 50 54 61 62 60 59 62 63 64 65 66 66 63 60 49 37 34 35 39 43 45 46 48 47 49 49 50 50 50 45 39 42 40 45 48 46 38 49 51 60 68 57
40 49 57 58 57 55 52 54 59 65 69 69 65 60 58 49 42 37 39 36 34 35 35 38 40 42 45 47 45 43 45 37 39 43 45 47 37 42 49 51 62 66 70
49 49 52 50 47 46 47 48 49 50 58 65 69 63 51 43 39 38 30 31 31 30 27 29 30 31 31 34 35 35 36 36 39 35 44 34 43 43 48 52 59 63 70
44 42 42 42 42 41 37 35 33 34 39 45 53 59 52 43 37 37 36 29 30 31 30 29 29 27 27 27 29 31 32 35 36 39 40 46 44 43 43 45 51 66 65
41 39 37 35 32 29 27 26 26 26 28 33 35 39 40 38 42 36 34 34 30 33 32 31 40 25 27 26 30 27 25 32 36 35 40 41 40 41 41 42 41 45 59
39 36 34 31 30 29 27 25 23 23 24 26 28 32 35 39 45 31 27 29 28 30 31 32 30 29 29 28 28 29 29 30 30 31 32 34 35 37 39 41 44 45 49
40 36 33 31 31 30 28 26 24 23 24 27 29 32 34 38 48 34 27 25 25 25 25 24 22 24 24 23 22 21 22 22 23 26 28 30 34 36 40 42 44 49 52
41 38 36 34 32 29 26 26 27 27 25 24 25 30 36 41 42 30 28 26 24 24 23 21 18 17 15 14 14 16 18 20 22 26 30 34 37 40 44 47 50 54 56
44 41 40 37 33 32 32 30 29 28 28 27 26 27 29 30 33 31 29 28 27 25 21 18 15 13 11 12 14 15 18 22 27 31 35 39 43 45 49 52 55 57 61
49 44 42 39 37 36 35 35 34 32 32 29 28 28 30 31 32 32 30 27 25 21 18 14 11 10 11 12 15 19 23 28 32 35 39 42 46 50 53 57 59 62 66
48 48 48 46 44 43 40 38 37 37 34 33 34 36 35 35 34 32 29 26 22 17 14 11 11 11 13 16 21 25 30 33 35 39 44 48 52 55 57 61 61 61 64
51 52 52 52 51 49 47 45 42 40 38 39 38 38 37 38 34 31 28 23 20 17 12 9 10 15 19 25 30 34 37 41 45 46 48 51 54 55 56 56 56 57 58
50 55 57 56 54 52 50 48 45 44 43 42 41 40 39 36 33 30 27 22 16 10 9 11 15 21 26 29 33 35 39 42 46 50 52 51 50 51 53 54 53 53 53
52 55 57 58 57 54 51 48 48 48 48 46 43 42 39 35 32 28 22 16 13 10 11 15 20 25 29 32 36 40 44 45 47 49 50 50 50 50 53 56 57 56 56
54 56 56 60 60 58 55 54 53 52 50 47 46 43 39 34 29 23 17 13 11 11 14 19 25 29 32 35 39 44 46 48 48 48 48 51 52 54 56 55 61 64 64
47 45 50 57 61 60 58 58 58 55 53 50 47 43 38 31 24 19 14 11 12 16 23 29 29 30 34 36 37 38 40 41 44 47 51 53 56 57 56 55 58 65 65
36 40 43 52 62 60 59 58 56 55 52 50 45 39 33 26 21 16 13 12 18 27 28 27 27 27 27 27 28 31 36 42 47 50 52 53 54 55 55 48 48 55 54
31 35 42 50 58 59 57 57 57 56 52 47 41 34 27 22 18 12 17 25 29 25 24 23 22 20 22 25 28 32 36 40 46 49 50 53 51 53 50 46 44 50 50
24 29 37 48 55 55 54 57 59 57 52 45 37 32 26 18 18 21 28 26 26 25 25 23 20 19 22 25 29 33 37 40 44 48 53 55 56 54 53 43 41 50 51
26 31 40 50 55 57 58 55 56 53 47 40 34 29 22 22 25 28 28 26 25 26 27 26 26 25 24 27 30 35 39 43 47 52 56 58 55 51 47 45 43 47 49
33 39 45 52 55 57 59 58 55 51 44 38 31 26 29 34 35 32 27 26 27 27 28 30 30 33 35 36 40 45 46 49 50 55 57 59 58 58 54 49 45 49 55
39 44 47 50 53 59 64 60 53 46 41 37 33 39 41 38 34 29 27 26 26 27 29 31 33 37 42 44 46 46 50 50 51 54 57 57 57 56 56 55 55 56 58
Wind_Direction_850mb
224 223 221 220 222 222 228 230 232 233 229 232 236 239 243 229 231 233 235 239 242 240 243 247 249 251 255 260 263 263 264 268 266 278 282 287 294 292 295 309 304 307 300
222 220 216 217 220 219 223 227 234 238 235 238 244 249 255 258 237 237 237 239 238 243 243 248 254 259 263 266 270 276 278 275 278 281 290 292 302 308 302 300 304 309 303
218 215 212 213 215 216 218 225 232 239 242 246 246 248 250 251 240 238 237 239 242 243 247 247 249 256 262 264 267 267 272 278 280 290 293 291 284 306 302 308 305 310 309
218 214 213 210 209 214 219 225 227 231 236 242 243 244 251 255 263 263 253 246 247 248 248 249 253 251 256 261 262 261 272 266 282 277 285 294 290 295 295 308 306 304 299
223 216 209 206 207 212 219 224 228 233 236 235 238 241 246 254 262 259 250 249 246 247 247 250 253 252 251 251 254 263 262 270 277 282 284 288 286 298 283 290 300 302 299
209 206 200 201 207 215 220 227 231 233 235 240 240 237 239 240 247 247 244 245 242 245 247 251 253 253 252 252 253 256 265 268 273 273 288 277 287 296 297 297 300 299 301
194 193 199 207 216 230 236 240 239 234 232 232 238 239 233 226 230 244 249 243 240 241 246 249 255 257 255 249 250 254 257 265 267 282 285 289 289 289 290 293 295 299 301
194 200 209 217 222 227 228 226 227 227 224 225 228 235 233 224 214 232 236 232 234 235 236 244 246 242 245 246 249 255 260 259 276 279 283 283 282 281 282 287 293 299 299
194 199 203 206 207 205 209 208 205 209 209 210 213 223 225 218 208 220 229 228 236 236 237 241 236 240 248 252 248 263 253 273 277 272 273 279 285 285 286 286 286 290 298
190 192 198 198 196 194 194 196 196 202 202 202 206 215 216 215 213 209 218 225 228 229 230 236 252 250 248 247 256 258 264 269 275 282 288 292 296 300 301 300 298 294 287
192 197 195 192 195 194 195 195 192 196 198 199 200 204 204 207 207 204 206 209 215 220 225 226 227 233 236 238 244 255 266 275 283 288 293 297 300 303 303 303 302 303 302
194 197 197 197 197 198 197 195 194 190 192 189 191 193 197 202 213 195 193 193 197 205 204 201 204 211 222 236 251 265 275 283 292 299 300 302 304 306 306 307 306 305 304
193 196 199 200 202 201 201 199 196 190 190 187 184 186 180 180 179 181 185 184 184 183 185 187 194 206 223 249 267 281 294 300 302 306 308 309 310 310 307 307 307 306 305
197 202 203 204 204 205 205 201 196 191 190 181 182 182 176 174 175 171 175 176 175 179 183 188 206 232 254 273 289 298 305 310 309 309 309 309 309 310 309 308 309 310 310
203 207 208 206 204 204 202 199 197 191 185 183 183 181 176 175 176 174 174 177 178 184 191 205 227 256 280 293 302 309 310 310 310 311 312 311 311 311 312 312 312 311 310
212 213 212 210 208 206 204 200 198 192 188 189 187 184 181 179 176 176 178 180 185 193 204 232 272 290 302 312 314 314 315 315 313 313 313 315 316 315 312 309 309 311 312
220 219 217 214 211 210 208 202 198 195 192 193 189 187 184 181 178 179 181 185 194 211 243 276 300 310 314 314 312 312 311 312 315 317 316 316 316 315 314 312 311 311 311
238 231 225 219 213 210 206 204 200 197 195 193 192 188 184 185 185 185 189 198 215 242 274 297 306 311 310 310 309 310 312 315 317 318 318 319 321 321 319 318 318 319 319
246 241 233 224 216 211 208 203 200 199 197 196 194 191 189 190 191 194 199 215 242 278 299 310 307 304 308 311 313 317 319 319 319 320 319 321 323 324 325 321 321 319 320
248 248 239 225 216 212 209 206 204 201 199 195 193 191 190 191 196 203 212 239 272 294 304 298 302 305 309 313 315 319 320 320 324 327 327 327 324 321 320 320 319 316 317
241 237 228 222 216 211 208 206 204 201 197 194 193 192 193 199 205 214 243 270 298 295 286 292 300 305 308 311 315 320 325 327 328 327 324 323 319 318 321 319 310 308 311
230 226 221 215 209 209 208 205 202 198 195 193 193 196 201 208 211 238 278 280 272 280 288 292 294 299 308 315 319 323 323 322 320 320 319 321 324 321 320 316 307 311 308
227 225 216 207 204 205 207 204 199 195 192 194 198 204 206 214 254 274 264 264 272 279 281 282 287 297 303 306 310 311 313 313 316 319 320 321 323 324 322 317 310 313 312
220 216 207 205 204 203 201 200 197 193 195 202 205 205 225 252 251 245 252 262 274 280 284 290 297 303 308 306 304 306 313 320 321 320 321 321 321 318 315 315 313 310 308
222 215 212 209 205 200 194 190 195 199 202 201 208 234 241 236 237 239 250 264 270 277 286 293 301 309 311 311 314 319 322 322 321 317 320 320 320 317 316 314 305 303 303
224 218 214 211 207 200 194 194 199 204 205 230 234 232 232 234 236 244 254 261 273 286 291 296 305 309 308 313 318 316 318 322 320 319 317 316 314 313 312 309 304 299 299